User: anonymous   Login
Location: Unspecified
(0.0000°N, 0.0000°E)
Time: 04:53:54
(UTC+00:00)
Language:

NOSS 2-3 (C) - Orbit

View from above orbital plane
View from above orbital plane
View from above satellite
View from above satellite

Ground track
Ground track

The orbit data is extracted from the following two-line orbital elements,

1 23908U 96029C   24108.94192094 0.00004000  00000-0  88506-3 0    08
2 23908  63.3342  92.6472 0811302  37.4874 322.5126 13.42629842    05
Epoch (UTC): 17 April 2024 22:36:21
Eccentricity: 0.0811302
inclination: 63.3342°
perigee height: 493 km
apogee height: 1706 km
right ascension of ascending node: 92.6472°
argument of perigee: 37.4874°
revolutions per day: 13.42629842
mean anomaly at epoch: 322.5126°
orbit number at epoch: 0

The dashed part of the orbit path shows where the satellite is in the earth's shadow,  

DLR